• In Italy
  • List of Countries
  • For 7 days
  • Water Temperature
  • Satellite Maps
  • Weather Map
  • Weather Widgets
  • user-avatar
    Login

    Hourly Weather Kalundborg

    Today, 22 October, Monday

    Time Temperature Precipitation Wind Pressure Humidity
    00:00 +12°C° 0.1 mm 8 mps 765 mmHg 87%
    01:00 +13°C° 0 mm 6 mps 765 mmHg 87%
    02:00 +12°C° 0.1 mm 7 mps 765 mmHg 85%
    03:00 +11°C° 0.1 mm 7 mps 765 mmHg 82%
    04:00 +10°C° 0.1 mm 8 mps 765 mmHg 80%
    05:00 +10°C° 0 mm 8 mps 766 mmHg 78%
    06:00 +9°C° 0 mm 8 mps 766 mmHg 77%
    07:00 +8°C° 0 mm 7 mps 766 mmHg 77%
    08:00 +9°C° 0 mm 8 mps 767 mmHg 71%
    09:00 +8°C° 0 mm 9 mps 767 mmHg 65%
    10:00 +9°C° 0 mm 10 mps 767 mmHg 59%
    11:00 +9°C° 0 mm 10 mps 767 mmHg 57%
    12:00 +11°C° 0 mm 9 mps 768 mmHg 56%
    13:00 +11°C° 0 mm 9 mps 768 mmHg 54%
    14:00 +10°C° 0 mm 9 mps 768 mmHg 56%
    15:00 +10°C° 0 mm 9 mps 767 mmHg 57%
    16:00 +10°C° 0 mm 8 mps 767 mmHg 59%
    17:00 +9°C° 0 mm 8 mps 767 mmHg 62%
    18:00 +8°C° 0 mm 9 mps 767 mmHg 64%
    19:00 +7°C° 0 mm 9 mps 767 mmHg 67%
    20:00 +7°C° 0 mm 9 mps 766 mmHg 68%
    21:00 +7°C° 0 mm 10 mps 765 mmHg 69%
    22:00 +7°C° 0 mm 10 mps 765 mmHg 70%
    23:00 +7°C° 0.5 mm 12 mps 763 mmHg 72%

    Tomorrow, 23 October, Tuesday

    Time Temperature Precipitation Wind Pressure Humidity
    00:00 +8°C° 0.5 mm 13 mps 762 mmHg 74%
    01:00 +8°C° 0.5 mm 14 mps 761 mmHg 77%
    02:00 +8°C° 1.4 mm 15 mps 759 mmHg 79%
    03:00 +9°C° 1.4 mm 15 mps 758 mmHg 81%
    04:00 +9°C° 1.4 mm 15 mps 756 mmHg 83%
    05:00 +9°C° 0.7 mm 15 mps 755 mmHg 82%
    06:00 +9°C° 0.7 mm 15 mps 754 mmHg 81%
    07:00 +10°C° 0.7 mm 15 mps 753 mmHg 80%
    08:00 +10°C° 0.6 mm 15 mps 753 mmHg 79%
    09:00 +10°C° 0.6 mm 15 mps 753 mmHg 79%
    10:00 +10°C° 0.6 mm 15 mps 752 mmHg 79%
    11:00 +10°C° 0.3 mm 15 mps 752 mmHg 76%
    12:00 +11°C° 0.3 mm 15 mps 752 mmHg 74%
    13:00 +11°C° 0.3 mm 15 mps 752 mmHg 72%
    14:00 +11°C° 0.1 mm 15 mps 752 mmHg 71%
    15:00 +10°C° 0.1 mm 14 mps 751 mmHg 71%
    16:00 +10°C° 0.1 mm 14 mps 751 mmHg 70%
    17:00 +10°C° 0 mm 14 mps 751 mmHg 70%
    18:00 +9°C° 0 mm 14 mps 751 mmHg 70%
    19:00 +9°C° 0 mm 14 mps 751 mmHg 70%
    20:00 +8°C° 0 mm 14 mps 751 mmHg 69%
    21:00 +8°C° 0 mm 15 mps 751 mmHg 68%
    22:00 +8°C° 0 mm 15 mps 751 mmHg 67%
    23:00 +6°C° 0 mm 14 mps 752 mmHg 64%

    Day after tomorrow, 24 October, Wednesday

    Time Temperature Precipitation Wind Pressure Humidity
    00:00 +6°C° 0 mm 14 mps 753 mmHg 60%
    01:00 +5°C° 0 mm 14 mps 753 mmHg 57%
    02:00 +5°C° 0 mm 13 mps 754 mmHg 57%
    03:00 +5°C° 0 mm 13 mps 754 mmHg 58%
    04:00 +5°C° 0 mm 13 mps 755 mmHg 58%
    05:00 +4°C° 0 mm 12 mps 755 mmHg 57%
    06:00 +4°C° 0 mm 11 mps 756 mmHg 57%
    07:00 +5°C° 0 mm 10 mps 757 mmHg 56%
    08:00 +5°C° 0 mm 10 mps 758 mmHg 54%
    09:00 +6°C° 0 mm 10 mps 758 mmHg 52%
    10:00 +7°C° 0 mm 9 mps 759 mmHg 50%
    11:00 +7°C° 0 mm 9 mps 759 mmHg 49%
    12:00 +7°C° 0 mm 9 mps 760 mmHg 49%
    13:00 +8°C° 0 mm 9 mps 760 mmHg 48%
    14:00 +7°C° 0 mm 9 mps 760 mmHg 52%
    15:00 +7°C° 0 mm 8 mps 760 mmHg 56%
    16:00 +7°C° 0 mm 8 mps 760 mmHg 61%
    17:00 +6°C° 0 mm 8 mps 760 mmHg 65%
    18:00 +6°C° 0 mm 8 mps 760 mmHg 70%
    19:00 +5°C° 0 mm 8 mps 759 mmHg 74%
    20:00 +6°C° 0.2 mm 8 mps 759 mmHg 77%
    21:00 +6°C° 0.2 mm 8 mps 758 mmHg 80%
    22:00 +7°C° 0.2 mm 8 mps 758 mmHg 83%
    23:00 +8°C° 0.5 mm 10 mps 757 mmHg 84%

    25 October, Thursday

    Time Temperature Precipitation Wind Pressure Humidity
    00:00 +9°C° 0.5 mm 11 mps 756 mmHg 85%
    01:00 +10°C° 0.5 mm 12 mps 755 mmHg 86%
    02:00 +10°C° 0.1 mm 12 mps 755 mmHg 84%
    03:00 +10°C° 0.1 mm 12 mps 754 mmHg 82%
    04:00 +10°C° 0.1 mm 12 mps 754 mmHg 80%
    05:00 +9°C° 0.1 mm 13 mps 754 mmHg 77%
    06:00 +9°C° 0.1 mm 13 mps 754 mmHg 75%
    07:00 +8°C° 0.1 mm 13 mps 754 mmHg 72%
    08:00 +8°C° 0 mm 13 mps 754 mmHg 70%
    09:00 +8°C° 0 mm 13 mps 754 mmHg 68%
    10:00 +9°C° 0 mm 13 mps 754 mmHg 66%
    11:00 +9°C° 0 mm 13 mps 754 mmHg 65%
    12:00 +9°C° 0 mm 13 mps 754 mmHg 63%
    13:00 +10°C° 0 mm 12 mps 754 mmHg 62%
    14:00 +9°C° 0 mm 12 mps 754 mmHg 64%
    15:00 +9°C° 0 mm 11 mps 754 mmHg 65%
    16:00 +8°C° 0 mm 11 mps 754 mmHg 67%
    17:00 +8°C° 0 mm 10 mps 754 mmHg 68%
    18:00 +8°C° 0 mm 10 mps 755 mmHg 70%
    19:00 +7°C° 0 mm 9 mps 755 mmHg 72%
    20:00 +7°C° 0 mm 9 mps 755 mmHg 74%
    21:00 +6°C° 0 mm 8 mps 755 mmHg 75%
    22:00 +6°C° 0 mm 8 mps 755 mmHg 77%
    23:00 +6°C° 0 mm 8 mps 754 mmHg 76%

    26 October, Friday

    Time Temperature Precipitation Wind Pressure Humidity
    00:00 +6°C° 0 mm 7 mps 754 mmHg 75%
    01:00 +6°C° 0 mm 7 mps 754 mmHg 74%
    02:00 +6°C° 0 mm 7 mps 753 mmHg 76%
    03:00 +7°C° 0 mm 6 mps 753 mmHg 77%
    04:00 +7°C° 0 mm 5 mps 752 mmHg 79%
    05:00 +7°C° 0 mm 5 mps 752 mmHg 81%
    06:00 +7°C° 0 mm 5 mps 751 mmHg 82%
    07:00 +8°C° 0 mm 4 mps 750 mmHg 84%
    08:00 +8°C° 0.4 mm 5 mps 750 mmHg 85%
    09:00 +9°C° 0.4 mm 7 mps 749 mmHg 87%
    10:00 +9°C° 0.4 mm 8 mps 748 mmHg 88%
    11:00 +10°C° 0.4 mm 8 mps 748 mmHg 83%
    12:00 +11°C° 0.4 mm 8 mps 747 mmHg 78%
    13:00 +11°C° 0.4 mm 9 mps 746 mmHg 73%
    14:00 +11°C° 0.2 mm 9 mps 745 mmHg 74%
    15:00 +10°C° 0.2 mm 9 mps 745 mmHg 75%
    16:00 +10°C° 0.2 mm 9 mps 744 mmHg 76%
    17:00 +8°C° 0.3 mm 10 mps 743 mmHg 74%
    18:00 +8°C° 0.3 mm 10 mps 743 mmHg 73%
    19:00 +7°C° 0.3 mm 11 mps 742 mmHg 71%
    20:00 +7°C° 0.1 mm 11 mps 742 mmHg 72%
    21:00 +7°C° 0.1 mm 12 mps 741 mmHg 72%
    22:00 +5°C° 0.1 mm 12 mps 741 mmHg 72%
    23:00 +5°C° 0 mm 12 mps 740 mmHg 71%

    27 October, Saturday

    Time Temperature Precipitation Wind Pressure Humidity
    00:00 +5°C° 0 mm 13 mps 740 mmHg 70%
    01:00 +5°C° 0 mm 13 mps 739 mmHg 70%
    02:00 +5°C° 0.2 mm 13 mps 739 mmHg 71%
    03:00 +5°C° 0.2 mm 13 mps 739 mmHg 72%
    04:00 +5°C° 0.2 mm 13 mps 738 mmHg 73%
    05:00 +4°C° 0.1 mm 13 mps 739 mmHg 73%
    06:00 +4°C° 0.1 mm 13 mps 739 mmHg 73%
    07:00 +3°C° 0.1 mm 13 mps 739 mmHg 73%
    08:00 +3°C° 0.1 mm 13 mps 740 mmHg 74%
    09:00 +4°C° 0.1 mm 12 mps 740 mmHg 74%
    10:00 +4°C° 0.1 mm 12 mps 741 mmHg 75%
    11:00 +4°C° 0.2 mm 12 mps 742 mmHg 73%
    12:00 +4°C° 0.2 mm 11 mps 742 mmHg 72%
    13:00 +6°C° 0.2 mm 11 mps 743 mmHg 70%
    14:00 +4°C° 0.1 mm 11 mps 744 mmHg 70%
    15:00 +5°C° 0.1 mm 10 mps 744 mmHg 70%
    16:00 +5°C° 0.1 mm 10 mps 745 mmHg 70%
    17:00 +5°C° 0.3 mm 10 mps 745 mmHg 73%
    18:00 +3°C° 0.3 mm 9 mps 746 mmHg 76%
    19:00 +3°C° 0.3 mm 9 mps 747 mmHg 79%
    20:00 +3°C° 0.4 mm 9 mps 747 mmHg 79%
    21:00 +3°C° 0.4 mm 9 mps 748 mmHg 78%
    22:00 +3°C° 0.4 mm 9 mps 748 mmHg 78%
    23:00 +2°C° 0.2 mm 9 mps 749 mmHg 78%

    28 October, Sunday

    Time Temperature Precipitation Wind Pressure Humidity
    00:00 +2°C° 0.2 mm 9 mps 749 mmHg 77%
    01:00 +2°C° 0.2 mm 9 mps 750 mmHg 76%
    02:00 +1°C° 0.1 mm 9 mps 750 mmHg 76%
    03:00 +1°C° 0.1 mm 9 mps 750 mmHg 76%
    04:00 +1°C° 0.1 mm 9 mps 750 mmHg 77%
    05:00 +1°C° 0.2 mm 9 mps 751 mmHg 76%
    06:00 +1°C° 0.2 mm 9 mps 751 mmHg 75%
    07:00 +1°C° 0.2 mm 9 mps 752 mmHg 74%
    08:00 +1°C° 0.2 mm 9 mps 752 mmHg 73%
    09:00 +1°C° 0.2 mm 9 mps 753 mmHg 71%
    10:00 +2°C° 0.2 mm 10 mps 753 mmHg 70%
    11:00 +2°C° 0.3 mm 9 mps 754 mmHg 68%
    12:00 +2°C° 0.3 mm 9 mps 754 mmHg 66%
    13:00 +2°C° 0.3 mm 9 mps 754 mmHg 64%
    14:00 +2°C° 0.2 mm 9 mps 755 mmHg 65%
    15:00 +1°C° 0.2 mm 9 mps 755 mmHg 66%
    16:00 +1°C° 0.2 mm 8 mps 755 mmHg 67%
    17:00 +1°C° 0.2 mm 8 mps 756 mmHg 69%
    18:00 0°C° 0.2 mm 8 mps 756 mmHg 70%
    19:00 0°C° 0.2 mm 8 mps 757 mmHg 71%
    20:00 0°C° 0.2 mm 7 mps 757 mmHg 72%
    21:00 -1°C° 0.2 mm 7 mps 758 mmHg 73%
    22:00 -1°C° 0.2 mm 7 mps 758 mmHg 75%
    23:00 -1°C° 0.2 mm 6 mps 758 mmHg 75%
    Show more